| time (UTC) | temp C | wind direction | speed KPH | gust KPH | rain 1hr cm | rain 24hr cm | rain mn cm | humidity % | barometer mb |
| 20260503222827 | 20 | 0.0 | 0.0 | 0.00 | 0.00 | 0.00 | 27 | 1013.2 | |
| 20260503222327 | 20 | 0.0 | 0.0 | 0.00 | 0.00 | 0.00 | 27 | 1013.2 | |
| 20260503221827 | 20 | 0.0 | 0.0 | 0.00 | 0.00 | 0.00 | 27 | 1013.2 | |
| 20260503221327 | 20 | 0.0 | 0.0 | 0.00 | 0.00 | 0.00 | 27 | 1013.2 | |
| 20260503220828 | 20 | 0.0 | 0.0 | 0.00 | 0.00 | 0.00 | 27 | 1013.2 | |
| 20260503220328 | 20 | 0.0 | 0.0 | 0.00 | 0.00 | 0.00 | 27 | 1013.2 | |
| 20260503215828 | 20 | 0.0 | 0.0 | 0.00 | 0.00 | 0.00 | 27 | 1013.2 | |
| 20260503215327 | 20 | 0.0 | 0.0 | 0.00 | 0.00 | 0.00 | 27 | 1013.2 | |
| 20260503214826 | 20 | 0.0 | 0.0 | 0.00 | 0.00 | 0.00 | 27 | 1013.2 | |
| 20260503214327 | 20 | 0.0 | 0.0 | 0.00 | 0.00 | 0.00 | 27 | 1013.2 | |
| 20260503213827 | 20 | 0.0 | 0.0 | 0.00 | 0.00 | 0.00 | 27 | 1013.2 | |
| 20260503213327 | 20 | 0.0 | 0.0 | 0.00 | 0.00 | 0.00 | 27 | 1013.2 | |
| 20260503212827 | 20 | 0.0 | 0.0 | 0.00 | 0.00 | 0.00 | 29 | 1014.3 | |
| 20260503212327 | 20 | 0.0 | 0.0 | 0.00 | 0.00 | 0.00 | 29 | 1014.3 | |
| 20260503211828 | 20 | 0.0 | 0.0 | 0.00 | 0.00 | 0.00 | 29 | 1014.3 | |
| 20260503211327 | 20 | 0.0 | 0.0 | 0.00 | 0.00 | 0.00 | 29 | 1014.3 | |
| 20260503210828 | 20 | 0.0 | 0.0 | 0.00 | 0.00 | 0.00 | 29 | 1014.3 | |
| 20260503210328 | 20 | 0.0 | 0.0 | 0.00 | 0.00 | 0.00 | 29 | 1014.3 | |
| 20260503205826 | 20 | 0.0 | 0.0 | 0.00 | 0.00 | 0.00 | 29 | 1014.3 | |
| 20260503205327 | 20 | 0.0 | 0.0 | 0.00 | 0.00 | 0.00 | 29 | 1014.3 | |
| 20260503204826 | 20 | 0.0 | 0.0 | 0.00 | 0.00 | 0.00 | 29 | 1014.3 | |
| 20260503204327 | 20 | 0.0 | 0.0 | 0.00 | 0.00 | 0.00 | 29 | 1014.3 | |
| 20260503203827 | 20 | 0.0 | 0.0 | 0.00 | 0.00 | 0.00 | 29 | 1014.3 | |
| 20260503203327 | 20 | 0.0 | 0.0 | 0.00 | 0.00 | 0.00 | 29 | 1014.3 | |
| 20260503202828 | 21 | 0.0 | 0.0 | 0.00 | 0.00 | 0.00 | 26 | 1015.0 | |
| 20260503202327 | 21 | 0.0 | 0.0 | 0.00 | 0.00 | 0.00 | 26 | 1015.0 | |
| 20260503201827 | 21 | 0.0 | 0.0 | 0.00 | 0.00 | 0.00 | 26 | 1015.0 | |
| 20260503201327 | 21 | 0.0 | 0.0 | 0.00 | 0.00 | 0.00 | 26 | 1015.0 | |
| 20260503200827 | 21 | 0.0 | 0.0 | 0.00 | 0.00 | 0.00 | 26 | 1015.0 | |
| 20260503200327 | 21 | 0.0 | 0.0 | 0.00 | 0.00 | 0.00 | 26 | 1015.0 | |
| 20260503195826 | 21 | 0.0 | 0.0 | 0.00 | 0.00 | 0.00 | 26 | 1015.0 | |
| 20260503195327 | 21 | 0.0 | 0.0 | 0.00 | 0.00 | 0.00 | 26 | 1015.0 | |
| 20260503194827 | 21 | 0.0 | 0.0 | 0.00 | 0.00 | 0.00 | 26 | 1015.0 | |
| 20260503194327 | 21 | 0.0 | 0.0 | 0.00 | 0.00 | 0.00 | 26 | 1015.0 | |
| 20260503193827 | 21 | 0.0 | 0.0 | 0.00 | 0.00 | 0.00 | 26 | 1015.0 | |
| 20260503193327 | 21 | 0.0 | 0.0 | 0.00 | 0.00 | 0.00 | 26 | 1015.0 | |
| 20260503192827 | 21 | 0.0 | 0.0 | 0.00 | 0.00 | 0.00 | 26 | 1015.6 | |
| 20260503192328 | 21 | 0.0 | 0.0 | 0.00 | 0.00 | 0.00 | 26 | 1015.6 | |
| 20260503191827 | 21 | 0.0 | 0.0 | 0.00 | 0.00 | 0.00 | 26 | 1015.6 | |
| 20260503191327 | 21 | 0.0 | 0.0 | 0.00 | 0.00 | 0.00 | 26 | 1015.6 | |
| 20260503190828 | 21 | 0.0 | 0.0 | 0.00 | 0.00 | 0.00 | 26 | 1015.6 | |
| 20260503190328 | 21 | 0.0 | 0.0 | 0.00 | 0.00 | 0.00 | 26 | 1015.6 | |
| 20260503185827 | 21 | 0.0 | 0.0 | 0.00 | 0.00 | 0.00 | 26 | 1015.6 | |
| 20260503185327 | 21 | 0.0 | 0.0 | 0.00 | 0.00 | 0.00 | 26 | 1015.6 | |
| 20260503184827 | 21 | 0.0 | 0.0 | 0.00 | 0.00 | 0.00 | 26 | 1015.6 | |
| 20260503184328 | 21 | 0.0 | 0.0 | 0.00 | 0.00 | 0.00 | 26 | 1015.6 | |
| 20260503183828 | 21 | 0.0 | 0.0 | 0.00 | 0.00 | 0.00 | 26 | 1015.6 | |
| 20260503183328 | 21 | 0.0 | 0.0 | 0.00 | 0.00 | 0.00 | 26 | 1015.6 | |
| 20260503175121 | 21 | 0.0 | 0.0 | 0.00 | 0.00 | 0.00 | 27 | 1015.6 | |
| 20260503174621 | 21 | 0.0 | 0.0 | 0.00 | 0.00 | 0.00 | 27 | 1015.6 | |
| 20260503174121 | 21 | 0.0 | 0.0 | 0.00 | 0.00 | 0.00 | 27 | 1015.6 | |
| 20260503173621 | 21 | 0.0 | 0.0 | 0.00 | 0.00 | 0.00 | 27 | 1015.6 | |
| 20260503173122 | 21 | 0.0 | 0.0 | 0.00 | 0.00 | 0.00 | 27 | 1015.6 | |
| 20260503172621 | 21 | 0.0 | 0.0 | 0.00 | 0.00 | 0.00 | 26 | 1016.2 | |
| 20260503172040 | 19 | 0.0 | 0.0 | 0.00 | 0.00 | 0.00 | 27 | 1017.2 | |
| 20260503171541 | 19 | 0.0 | 0.0 | 0.00 | 0.00 | 0.00 | 27 | 1017.2 | |
| 20260503171040 | 19 | 0.0 | 0.0 | 0.00 | 0.00 | 0.00 | 27 | 1017.2 | |
| 20260503170540 | 19 | 0.0 | 0.0 | 0.00 | 0.00 | 0.00 | 27 | 1017.2 | |
| 20260503150540 | 10 | 0.0 | 0.0 | 0.00 | 0.00 | 0.00 | 43 | 1018.8 | |
| 20260503131040 | 5 | 0.0 | 0.0 | 0.00 | 0.00 | 0.00 | 67 | 1019.5 | |
| 20260503130540 | 5 | 0.0 | 0.0 | 0.00 | 0.00 | 0.00 | 67 | 1019.5 | |
| 20260503110540 | 1 | 0.0 | 0.0 | 0.00 | 0.00 | 0.00 | 86 | 1019.4 | |
| 20260503081540 | 3 | 0.0 | 0.0 | 0.00 | 0.00 | 0.00 | 77 | 1019.1 | |
| 20260503081039 | 3 | 0.0 | 0.0 | 0.00 | 0.00 | 0.00 | 77 | 1019.1 | |
| 20260503080540 | 3 | 0.0 | 0.0 | 0.00 | 0.00 | 0.00 | 77 | 1019.1 | |
| 20260503072539 | 4 | 0.0 | 0.0 | 0.00 | 0.00 | 0.00 | 73 | 1019.1 | |
| 20260503072040 | 4 | 0.0 | 0.0 | 0.00 | 0.00 | 0.00 | 73 | 1019.1 | |
| 20260503071540 | 4 | 0.0 | 0.0 | 0.00 | 0.00 | 0.00 | 73 | 1019.1 | |
| 20260503071039 | 4 | 0.0 | 0.0 | 0.00 | 0.00 | 0.00 | 73 | 1019.1 | |
| 20260503070539 | 4 | 0.0 | 0.0 | 0.00 | 0.00 | 0.00 | 73 | 1019.1 | |
| 20260503055041 | 4 | 0.0 | 0.0 | 0.00 | 0.00 | 0.00 | 71 | 1019.3 | |
| 20260503054539 | 4 | 0.0 | 0.0 | 0.00 | 0.00 | 0.00 | 71 | 1019.3 | |
| 20260503054039 | 4 | 0.0 | 0.0 | 0.00 | 0.00 | 0.00 | 69 | 1019.5 | |
| 20260503053539 | 4 | 0.0 | 0.0 | 0.00 | 0.00 | 0.00 | 69 | 1019.5 | |
| 20260503053039 | 4 | 0.0 | 0.0 | 0.00 | 0.00 | 0.00 | 69 | 1019.5 | |
| 20260503052540 | 4 | 0.0 | 0.0 | 0.00 | 0.00 | 0.00 | 69 | 1019.5 | |
| 20260503052039 | 4 | 0.0 | 0.0 | 0.00 | 0.00 | 0.00 | 69 | 1019.5 | |
| 20260503051539 | 4 | 0.0 | 0.0 | 0.00 | 0.00 | 0.00 | 69 | 1019.5 | |
| 20260503051039 | 4 | 0.0 | 0.0 | 0.00 | 0.00 | 0.00 | 69 | 1019.5 | |
| 20260503050539 | 4 | 0.0 | 0.0 | 0.00 | 0.00 | 0.00 | 69 | 1019.5 | |
| 20260503050040 | 4 | 0.0 | 0.0 | 0.00 | 0.00 | 0.00 | 69 | 1019.5 | |
| 20260503045539 | 4 | 0.0 | 0.0 | 0.00 | 0.00 | 0.00 | 69 | 1019.5 | |
| 20260503045039 | 4 | 0.0 | 0.0 | 0.00 | 0.00 | 0.00 | 69 | 1019.5 | |
| 20260503044539 | 4 | 0.0 | 0.0 | 0.00 | 0.00 | 0.00 | 69 | 1019.5 | |
| 20260503044040 | 5 | 0.0 | 0.0 | 0.00 | 0.00 | 0.00 | 66 | 1019.6 | |
| 20260503043540 | 5 | 0.0 | 0.0 | 0.00 | 0.00 | 0.00 | 66 | 1019.6 | |
| 20260503043039 | 5 | 0.0 | 0.0 | 0.00 | 0.00 | 0.00 | 66 | 1019.6 | |
| 20260503042540 | 5 | 0.0 | 0.0 | 0.00 | 0.00 | 0.00 | 66 | 1019.6 | |
| 20260503042039 | 5 | 0.0 | 0.0 | 0.00 | 0.00 | 0.00 | 66 | 1019.6 | |
| 20260503041539 | 5 | 0.0 | 0.0 | 0.00 | 0.00 | 0.00 | 66 | 1019.6 | |
| 20260503041040 | 5 | 0.0 | 0.0 | 0.00 | 0.00 | 0.00 | 66 | 1019.6 | |
| 20260503040540 | 5 | 0.0 | 0.0 | 0.00 | 0.00 | 0.00 | 66 | 1019.6 | |
| 20260503040039 | 5 | 0.0 | 0.0 | 0.00 | 0.00 | 0.00 | 66 | 1019.6 | |
| 20260503035540 | 5 | 0.0 | 0.0 | 0.00 | 0.00 | 0.00 | 66 | 1019.6 | |
| 20260503035040 | 5 | 0.0 | 0.0 | 0.00 | 0.00 | 0.00 | 66 | 1019.6 | |
| 20260503034540 | 5 | 0.0 | 0.0 | 0.00 | 0.00 | 0.00 | 66 | 1019.6 | |
| 20260503034039 | 5 | 0.0 | 0.0 | 0.00 | 0.00 | 0.00 | 62 | 1019.5 | |
| 20260503033539 | 5 | 0.0 | 0.0 | 0.00 | 0.00 | 0.00 | 62 | 1019.5 | |
| 20260503033039 | 5 | 0.0 | 0.0 | 0.00 | 0.00 | 0.00 | 62 | 1019.5 | |
| 20260503032540 | 5 | 0.0 | 0.0 | 0.00 | 0.00 | 0.00 | 62 | 1019.5 | |
| 20260503032040 | 5 | 0.0 | 0.0 | 0.00 | 0.00 | 0.00 | 62 | 1019.5 | |
| 20260503031539 | 5 | 0.0 | 0.0 | 0.00 | 0.00 | 0.00 | 62 | 1019.5 | |
| 20260503031039 | 5 | 0.0 | 0.0 | 0.00 | 0.00 | 0.00 | 62 | 1019.5 | |
| 20260503030540 | 5 | 0.0 | 0.0 | 0.00 | 0.00 | 0.00 | 62 | 1019.5 | |
| 20260503030039 | 5 | 0.0 | 0.0 | 0.00 | 0.00 | 0.00 | 62 | 1019.5 | |
| 20260503025539 | 5 | 0.0 | 0.0 | 0.00 | 0.00 | 0.00 | 62 | 1019.5 | |
| 20260503025039 | 5 | 0.0 | 0.0 | 0.00 | 0.00 | 0.00 | 62 | 1019.5 | |
| 20260503024539 | 5 | 0.0 | 0.0 | 0.00 | 0.00 | 0.00 | 62 | 1019.5 | |
| 20260503024040 | 5 | 0.0 | 0.0 | 0.00 | 0.00 | 0.00 | 56 | 1019.3 | |
| 20260503023540 | 5 | 0.0 | 0.0 | 0.00 | 0.00 | 0.00 | 56 | 1019.3 | |
| 20260503023039 | 5 | 0.0 | 0.0 | 0.00 | 0.00 | 0.00 | 56 | 1019.3 | |
| 20260503022540 | 5 | 0.0 | 0.0 | 0.00 | 0.00 | 0.00 | 56 | 1019.3 | |
| 20260503022039 | 5 | 0.0 | 0.0 | 0.00 | 0.00 | 0.00 | 56 | 1019.3 | |
| 20260503021541 | 5 | 0.0 | 0.0 | 0.00 | 0.00 | 0.00 | 56 | 1019.3 | |
| 20260503021039 | 5 | 0.0 | 0.0 | 0.00 | 0.00 | 0.00 | 56 | 1019.3 | |
| 20260503020540 | 5 | 0.0 | 0.0 | 0.00 | 0.00 | 0.00 | 56 | 1019.3 | |
| 20260503020040 | 5 | 0.0 | 0.0 | 0.00 | 0.00 | 0.00 | 56 | 1019.3 | |
| 20260503015539 | 5 | 0.0 | 0.0 | 0.00 | 0.00 | 0.00 | 56 | 1019.3 | |
| 20260503015039 | 5 | 0.0 | 0.0 | 0.00 | 0.00 | 0.00 | 56 | 1019.3 |